Location: Tierra del Sol
(32.6128°N, 116.3319°W)
Time: 09:52:40
(UTC-07:00)

Daily predictions for brighter satellites

Satellite Brightness Start Highest point End
(mag) Time Altitude Azimuth Time Altitude Azimuth Time Altitude Azimuth
Cosmos 2251 Rocket 3.7 20:03:10 10° S 20:08:18 55° ESE 20:13:31 10° NNE
Cosmos 2333 Rocket 2.8 20:02:59 10° SSW 20:08:34 64° WNW 20:14:11 10° NNE
H-2A R/B 3.3 20:10:26 10° SE 20:14:09 41° ENE 20:17:53 10° N
Cosmos 1844 Rocket 3.3 20:14:21 10° NNW 20:19:54 58° WSW 20:25:24 10° S
Cosmos 1975 3.4 20:17:54 10° NNW 20:21:52 59° W 20:25:46 10° S
ERS-1 Rocket 3.8 20:17:35 10° SE 20:22:03 33° ENE 20:26:30 10° N
Cosmos 1844 3.9 20:16:31 10° NNW 20:22:17 78° WSW 20:28:04 10° SSE
Cosmos 1606 Rocket 4.0 20:21:24 10° N 20:25:38 43° E 20:29:48 10° SSE
FENGYUN 3A 3.7 20:20:27 10° SSE 20:25:45 66° ENE 20:31:05 10° N
Hubble Space Telescope 2.8 20:25:28 10° WSW 20:28:16 17° SSW 20:31:03 10° SSE
H-2A R/B 3.1 20:25:29 10° SE 20:28:59 28° ENE 20:32:41 10° NNE
ATLAS CENTAUR R/B 3.5 20:31:31 10° SW 20:36:04 38° WNW 20:40:46 10° NNE
Resurs 01 Rocket 4.3 20:37:59 10° SW 20:40:57 17° W 20:43:54 10° NW
Cosmos 2237 Rocket 4.1 20:39:58 10° SW 20:44:59 33° WNW 20:50:03 10° N
GEOS 3 Rocket 3.7 20:44:04 12° SSE 20:48:55 83° WSW 20:54:10 10° NW
USA 186 2.7 20:47:41 10° S 20:50:33 41° W 20:53:14 10° NNW
PSLV R/B 3.3 20:47:11 10° WSW 20:50:42 89° SSE 20:54:16 10° ENE
Atlas Centaur 2 3.2 20:44:51 10° SW 20:52:00 50° SSE 21:00:07 10° E
Aureole 2 Rocket 2.7 20:48:48 10° S 20:52:53 62° ESE 20:56:37 10° NNE
Cosmos 1025 Rocket 4.2 20:49:27 10° SSW 20:53:40 46° W 20:57:54 10° N
ISS -1.3 20:51:41 10° S 20:52:25 14° S 20:52:25 14° S
CZ-4 DEB 4.1 20:52:24 10° S 20:55:26 38° W 20:58:28 10° NNW
Cosmos 2228 3.6 20:52:04 10° N 20:56:12 39° E 20:58:26 23° SE
Cosmos 1939 Rocket 3.4 20:54:30 21° SE 20:56:52 43° ENE 21:00:49 10° N
Cosmos 494 Rocket 4.1 20:52:03 10° SSW 20:57:09 77° WNW 21:02:17 10° NNE
Cosmos 2278 Rocket 2.8 20:51:38 10° NNW 20:57:11 57° WSW 21:02:43 10° S
Cosmos 1892 Rocket 4.0 20:53:47 10° SSW 20:58:09 63° W 21:02:35 10° N
Meteor 1-15 Rocket 4.5 20:55:40 10° N 21:01:06 51° E 21:04:44 21° SSE
COSMOS 2455 3.4 20:57:33 10° S 21:02:57 36° ESE 21:08:22 10° NE
Milstar 3 Cent rocket 2.9 20:58:10 10° W 21:05:34 44° SSW 21:08:18 24° SE
CZ-4 SHROUD 4.0 21:07:20 32° E 21:07:46 34° ENE 21:10:41 10° N
SPOT 5 3.3 21:06:10 26° ESE 21:08:01 38° ENE 21:12:04 10° N
Cosmos 1666 3.0 21:04:37 10° N 21:08:26 50° E 21:09:51 32° SE
Lacrosse 5 rocket 4.5 21:07:38 10° WNW 21:09:59 15° NW 21:12:24 10° N
Cosmos 2369 Rocket 4.4 21:10:11 10° NE 21:10:54 10° NE 21:11:38 10° ENE
OTV 4 2.3 21:08:54 10° W 21:11:09 19° SSW 21:11:32 19° SSW
SL-16 R/B 3.3 21:06:36 10° SW 21:12:00 46° WNW 21:17:25 10° N
Nimbus 7 Rocket 4.4 21:11:57 10° NNE 21:17:55 85° WNW 21:23:48 10° SSW
Gbstr 26 Del rocket 4.5 21:10:44 10° NW 21:18:16 87° NE 21:23:16 27° SE
Cosmos 1743 4.2 21:16:33 10° NNW 21:20:05 35° W 21:23:27 11° SSW
Tsikada Rocket 4.0 21:18:41 16° S 21:23:59 70° E 21:30:20 10° NNE
Cosmos 1331 Rocket 4.2 21:19:09 10° NNW 21:24:18 68° WSW 21:27:27 24° S
ALOS 4.4 21:25:27 10° SSW 21:29:04 22° W 21:32:44 10° NW
Cosmos 1513 Rocket 4.4 21:22:50 10° N 21:29:09 87° E 21:33:01 24° S
GRACE-1 4.3 21:27:02 10° N 21:29:24 55° NNE 21:29:24 55° NNE
GRACE-2 4.3 21:27:27 10° N 21:29:49 55° NNE 21:29:49 55° NNE
SeaSat 1 2.5 21:29:57 38° SE 21:31:46 67° ENE 21:36:40 10° NNW
MetOp-B 4.3 21:30:22 36° SE 21:32:19 57° ENE 21:37:34 10° N
Cosmos 1302 Rocket 3.9 21:28:28 10° NNW 21:33:44 83° ENE 21:35:46 38° SSE
Terra 4.0 21:35:13 12° ENE 21:35:18 12° ENE 21:37:11 10° NE
Cosmos 2058 Rocket 4.4 21:34:49 10° NNW 21:38:49 36° W 21:41:48 16° SSW
IUS-17 SRM-1 4.4 21:35:19 10° W 21:39:04 54° S 21:45:10 26° ESE
Cosmos 2285 Rocket 4.3 21:32:59 10° NNW 21:39:14 66° WSW 21:43:00 25° S
Cosmos 1603 3.9 21:35:08 10° SSW 21:40:44 73° WNW 21:46:21 10° NNE
CZ-4B R/B 3.4 21:35:51 10° NNE 21:40:57 80° ESE 21:43:33 30° S
Cosmos 1602 Rocket 4.1 21:38:30 19° SSW 21:41:33 59° W 21:45:58 10° N
PSLV R/B 3.5 21:41:56 62° WNW 21:41:56 62° WNW 21:44:49 10° NNW
UNK 4.4 21:40:52 10° N 21:46:18 74° WNW 21:51:19 14° SSW
APEX 3.8 21:42:26 10° NNW 21:46:47 79° WSW 21:48:20 46° S
Cosmos 1825 Rocket 4.2 21:47:30 41° ENE 21:47:30 41° ENE 21:51:12 10° NNE
Cosmos 1461 3.1 21:43:24 10° NNW 21:47:34 54° ENE 21:47:38 54° ENE
Timation 1 Rocket 4.2 21:44:31 10° NNW 21:50:34 83° ENE 21:52:25 47° SSE
Cosmos 1812 Rocket 3.4 21:52:22 10° N 21:56:47 89° WSW 21:57:06 77° S
YAOGAN 6 3.0 21:59:25 62° N 21:59:25 62° N 22:02:35 10° N
USA 245 4.3 21:58:01 49° SSE 21:59:47 78° ENE 22:05:26 10° N
Centaur D AC-28 3.3 21:56:47 10° WSW 21:58:43 21° SW 21:58:43 21° SW
Envisat 3.9 22:00:03 28° SSW 22:02:10 44° W 22:07:01 10° NNW
H-2A R/B 4.4 22:02:37 12° SW 22:04:59 18° W 22:07:56 10° NW
Cosmos 1943 3.0 22:05:16 60° SSE 22:06:13 73° ESE 22:11:53 10° NNE
Cosmos 407 Rocket 4.2 22:07:33 40° ENE 22:07:33 40° ENE 22:11:28 10° NNE
ATLAS 3B R/B 2.9 22:03:51 28° S 22:08:08 66° ESE 22:15:41 10° NE
OAO 3 Copernicus 4.1 22:03:07 10° WNW 22:08:11 84° SSW 22:08:18 83° SSE
Abrixas rocket 3.8 22:07:26 10° NW 22:09:36 36° NW 22:09:36 36° NW
Cosmos 1634 Rocket 3.9 22:05:42 10° N 22:11:49 64° E 22:12:36 59° ESE
USA 81 3.9 22:13:37 10° N 22:18:56 85° E 22:19:05 83° SE
USA 234 3.2 22:17:55 55° ESE 22:19:30 80° NE 22:26:05 10° NW
Cosmos 1943 Rocket 4.1 22:20:10 10° NNE 22:23:35 16° ENE 22:23:46 16° ENE
CZ-4C R/B 4.2 22:27:06 51° N 22:27:06 51° N 22:30:17 10° N
Cosmos 489 Rocket 4.3 22:27:12 71° SSE 22:27:43 76° ESE 22:34:05 10° NNE
Cosmos 1953 Rocket 4.3 22:32:44 51° NNW 22:32:44 51° NNW 22:36:07 10° N
Cosmos 2279 Rocket 4.1 22:31:21 10° N 22:37:18 58° ENE 22:37:18 58° ENE
H-2A R/B 2.4 22:40:36 53° NNE 22:40:36 53° NNE 22:44:36 10° N
Atlas Centaur 2 2.9 22:33:36 10° WSW 22:41:43 76° S 22:43:37 57° ESE
Cosmos 1992 Rocket 4.3 22:41:32 10° NNW 22:46:04 62° WNW 22:46:04 62° WNW
ARGOS 4.0 22:52:25 42° W 22:52:28 42° W 22:57:37 10° NNW
Cosmos 2369 Rocket 2.4 22:50:01 10° NNW 22:54:55 67° NNW 22:54:55 67° NNW
Lacrosse 4 Rocket 3.6 23:07:36 23° NNW 23:07:36 23° NNW 23:09:30 10° N
COSMOS 2406 4.4 23:14:44 35° NE 23:14:44 35° NE 23:18:01 10° NNE
Terra 3.1 23:14:06 37° NW 23:14:06 37° NW 23:17:11 10° NNW
Cosmos 1092 Rocket 4.4 23:37:34 58° NNE 23:37:34 58° NNE 23:42:32 10° N
CZ-4C R/B 4.3 23:53:07 17° NE 23:53:07 17° NE 23:54:32 10° NE
